User: anonymous   Login
Location: Rochester
(43.1610°N, 77.6109°W)
Time: 02:55:15
(UTC-04:00)
Language:

AO-73 - Orbit

View from above orbital plane
View from above orbital plane
View from above satellite
View from above satellite

Ground track
Ground track

The orbit data is extracted from the following two-line orbital elements,

1 39444U 13066AE  21297.95819429  .00000626  00000-0  81862-4 0  9991
2 39444  97.5976 278.0601 0059055  86.2731 274.5233 14.82567282426625
Epoch (UTC): 24 October 2021 22:59:47
Eccentricity: 0.0059055
inclination: 97.5976°
perigee height: 580 km
apogee height: 662 km
right ascension of ascending node: 278.0601°
argument of perigee: 86.2731°
revolutions per day: 14.82567282
mean anomaly at epoch: 274.5233°
orbit number at epoch: 42662

The dashed part of the orbit path shows where the satellite is in the earth's shadow,  

DLR